{"data":{"norad_id":20026,"epoch":"2026-09-19T09:00:22.955616Z","epoch_age_seconds":108434,"freshness":"FRESH","line1":"1 20026U 89039C   26262.37526569 -.00000022  00000+0  00000+0 0  9993","line2":"2 20026  64.8728 307.2858 0020884 212.1962 202.8066  2.13204769290510","mean_motion":2.13204769,"eccentricity":0.0020884,"inclination_deg":64.8728,"raan_deg":307.2858,"arg_perigee_deg":212.1962,"mean_anomaly_deg":202.8066,"bstar":0,"rev_number":29051,"period_min":675.40703088119,"perigee_km":19068.436008895,"apogee_km":19174.943685671,"semimajor_km":25499.826847283,"source":"CELESTRAK","updated_at":"2026-09-20T09:00:47.281193Z"}}